STARLINK-35714, 66214

Orbit data source: Space-Track

STARLINK-35714, 66214 is a payload satellite owned by SpaceX/Seattle (US) in LEO that was launched on Tue, 28 Oct 2025 UTC via an FALCON 9 launch vehicle from the Air Force Western Test Range (AFWTR). Payload-class satellites include a variety of spacecraft equipped with specific instruments for various scientific and technological missions. These include communications satellites like Starlink; space stations such as the ISS; scientific satellites like the Hubble; Earth observation satellites from companies like Planet Labs, Umbra, and HawkEye 360; GPS; miniature CubeSats for education and research; and military/defense satellites.

Loading next visibility...
Identifier
66214, 2025-244J
Orbit
LEO
Country
Flag of USUS
Related business
Manufacturer
SpaceX/Seattle
Mission
Operational Commercial Communications
Bus & Motor
STARLINK V2MO, Unknown motor
Mass
575 kg wet, ~530 kg dry
Launch date (UTC)
2025-10-28 (8 months ago)
Launch vehicle
FALCON 9
Launch site
Air Force Western Test Range (AFWTR)
Object type
Payload
Rocket body
Debris
Shape & HBR
Box + 2 Pan, 17.7 m
Radar Cross Section
36.964 m², Large (>1 m²)

Expand to show TLE details & history
Last TLE update: 1 day ago

TLE from 1 day ago
0 STARLINK-35714
1 66214U 25244J   26170.57595420  .00014776  00000-0  51012-3 0  9996
2 66214  53.1601 117.0219 0001216  80.8891 279.2247 15.30193714 37256
Epoch: 2026-06-19T13:49Z
TLE epoch observation values (Epoch: 2026-06-19T13:49:22.442Z)
Latitude
-0.00007°
Longitude
1.87539°
Altitude
476 km
Speed
7.629 km/s
True Right ascension
07h 48m 05s
True Declination
0° 00' 00"
Sunlit
Object was in daylight at epoch
Visualization orbit readout
Latitude
Unknown
Longitude
Unknown
Altitude
Unknown
Speed
Unknown
Apparent Right ascension
Unknown
Apparent Declination
Unknown
Sunlit
N/A
Visualization observer readout
Local Sidereal Time
07:18:21
Azimuth
Unknown
Elevation
Unknown
Doppler factor
Unknown
Orbital elements
Apogee altitude
476.324 km
Perigee altitude
474.657 km
Semi-major axis
6,853.627 km
Eccentricity
0.00012
Inclination
53.1601°
RAAN
117.0219°
Arg. of periapsis
80.8891°
True anomaly
279.21095°
Mean anomaly
279.2247°
Eccentric anomaly
279.21782°
Mean motion
3.82527 °/min
Orbital period
94.11 mins
BSTAR
0.00051012
Loading maneuver chart data...
Computing Atmospheric mass density...
Loading historical data...
Loading historical data...
Loading historical data...
Loading historical data...
Loading historical data...
Loading historical data...
Loading historical data...

Documentation

Showing up to 5 results
|